When you browse on this site, cookies collect data to enhance your experience and personalize the content and advertising you see.
Visit our Privacy Policy to learn more. By continuing to use the site, you agree to this use of cookies and data.

Hourly Weather Ereshkino

Today, 5 August, Wednesday

Time Temperature Precipitation Wind Pressure Humidity
00:00 +16°C° 0 mm 2 mps 743 mmHg 91%
01:00 +16°C° 0 mm 3 mps 743 mmHg 90%
02:00 +14°C° 0 mm 3 mps 743 mmHg 90%
03:00 +16°C° 0 mm 3 mps 743 mmHg 88%
04:00 +16°C° 0 mm 3 mps 743 mmHg 87%
05:00 +15°C° 0 mm 4 mps 742 mmHg 85%
06:00 +17°C° 0 mm 4 mps 742 mmHg 80%
07:00 +19°C° 0 mm 4 mps 743 mmHg 76%
08:00 +20°C° 0 mm 4 mps 743 mmHg 71%
09:00 +21°C° 0 mm 4 mps 743 mmHg 67%
10:00 +22°C° 0 mm 4 mps 743 mmHg 64%
11:00 +25°C° 0 mm 5 mps 743 mmHg 60%
12:00 +25°C° 0 mm 4 mps 743 mmHg 61%
13:00 +25°C° 0 mm 4 mps 743 mmHg 62%
14:00 +25°C° 0 mm 3 mps 743 mmHg 63%
15:00 +25°C° 0 mm 3 mps 743 mmHg 65%
16:00 +25°C° 0 mm 2 mps 743 mmHg 67%
17:00 +25°C° 0 mm 2 mps 743 mmHg 69%
18:00 +23°C° 0.1 mm 1 mps 743 mmHg 77%
19:00 +21°C° 0.1 mm 1 mps 743 mmHg 84%
20:00 +20°C° 0.1 mm 1 mps 744 mmHg 92%
21:00 +19°C° 0 mm 1 mps 744 mmHg 92%
22:00 +17°C° 0 mm 0 mps 744 mmHg 93%
23:00 +17°C° 0 mm 0 mps 744 mmHg 93%

Tomorrow, 6 August, Thursday

Time Temperature Precipitation Wind Pressure Humidity
00:00 +17°C° 0.2 mm 0 mps 744 mmHg 95%
01:00 +18°C° 0.2 mm 1 mps 744 mmHg 96%
02:00 +18°C° 0.2 mm 1 mps 745 mmHg 97%
03:00 +18°C° 0.2 mm 1 mps 745 mmHg 97%
04:00 +18°C° 0.2 mm 1 mps 745 mmHg 97%
05:00 +18°C° 0.2 mm 1 mps 745 mmHg 98%
06:00 +18°C° 0 mm 2 mps 745 mmHg 94%
07:00 +19°C° 0 mm 2 mps 746 mmHg 90%
08:00 +20°C° 0 mm 2 mps 746 mmHg 86%
09:00 +21°C° 0 mm 2 mps 746 mmHg 74%
10:00 +22°C° 0 mm 3 mps 746 mmHg 62%
11:00 +24°C° 0 mm 3 mps 746 mmHg 50%
12:00 +24°C° 0 mm 3 mps 746 mmHg 49%
13:00 +25°C° 0 mm 3 mps 747 mmHg 47%
14:00 +25°C° 0 mm 4 mps 747 mmHg 45%
15:00 +24°C° 0 mm 3 mps 747 mmHg 49%
16:00 +24°C° 0 mm 3 mps 747 mmHg 53%
17:00 +23°C° 0 mm 2 mps 747 mmHg 57%
18:00 +21°C° 0 mm 2 mps 747 mmHg 65%
19:00 +19°C° 0 mm 2 mps 747 mmHg 72%
20:00 +17°C° 0 mm 2 mps 748 mmHg 79%
21:00 +16°C° 0 mm 2 mps 748 mmHg 81%
22:00 +15°C° 0 mm 2 mps 748 mmHg 84%
23:00 +15°C° 0 mm 2 mps 748 mmHg 86%

Day after tomorrow, 7 August, Friday

Time Temperature Precipitation Wind Pressure Humidity
00:00 +14°C° 0 mm 1 mps 748 mmHg 87%
01:00 +14°C° 0 mm 1 mps 748 mmHg 88%
02:00 +13°C° 0 mm 1 mps 749 mmHg 89%
03:00 +13°C° 0 mm 1 mps 749 mmHg 88%
04:00 +14°C° 0 mm 1 mps 749 mmHg 88%
05:00 +14°C° 0 mm 1 mps 749 mmHg 88%
06:00 +16°C° 0 mm 1 mps 749 mmHg 80%
07:00 +19°C° 0 mm 1 mps 750 mmHg 72%
08:00 +21°C° 0 mm 1 mps 750 mmHg 65%
09:00 +22°C° 0 mm 1 mps 750 mmHg 60%
10:00 +23°C° 0 mm 2 mps 750 mmHg 56%
11:00 +24°C° 0 mm 2 mps 750 mmHg 51%
12:00 +25°C° 0 mm 2 mps 750 mmHg 52%
13:00 +25°C° 0 mm 2 mps 750 mmHg 52%
14:00 +25°C° 0 mm 1 mps 749 mmHg 53%
15:00 +24°C° 0.1 mm 2 mps 749 mmHg 59%
16:00 +23°C° 0.1 mm 2 mps 749 mmHg 65%
17:00 +23°C° 0.1 mm 2 mps 749 mmHg 71%
18:00 +21°C° 0 mm 1 mps 749 mmHg 77%
19:00 +19°C° 0 mm 1 mps 749 mmHg 84%
20:00 +18°C° 0 mm 1 mps 749 mmHg 90%
21:00 +16°C° 0 mm 1 mps 749 mmHg 91%
22:00 +15°C° 0 mm 0 mps 749 mmHg 92%
23:00 +14°C° 0 mm 0 mps 749 mmHg 93%

8 August, Saturday

Time Temperature Precipitation Wind Pressure Humidity
00:00 +14°C° 0 mm 0 mps 749 mmHg 93%
01:00 +14°C° 0 mm 0 mps 749 mmHg 94%
02:00 +13°C° 0 mm 0 mps 749 mmHg 94%
03:00 +13°C° 0 mm 0 mps 749 mmHg 94%
04:00 +14°C° 0 mm 0 mps 749 mmHg 94%
05:00 +14°C° 0 mm 0 mps 749 mmHg 93%
06:00 +16°C° 0 mm 0 mps 749 mmHg 87%
07:00 +18°C° 0 mm 0 mps 749 mmHg 80%
08:00 +22°C° 0 mm 1 mps 749 mmHg 73%
09:00 +23°C° 0.1 mm 1 mps 748 mmHg 68%
10:00 +24°C° 0.1 mm 1 mps 748 mmHg 63%
11:00 +25°C° 0.1 mm 1 mps 748 mmHg 58%
12:00 +26°C° 0.1 mm 1 mps 748 mmHg 57%
13:00 +26°C° 0.1 mm 1 mps 747 mmHg 57%
14:00 +26°C° 0.1 mm 1 mps 747 mmHg 56%
15:00 +25°C° 0.4 mm 1 mps 746 mmHg 65%
16:00 +24°C° 0.4 mm 1 mps 746 mmHg 74%
17:00 +23°C° 0.4 mm 1 mps 745 mmHg 83%
18:00 +21°C° 0.1 mm 1 mps 745 mmHg 87%
19:00 +20°C° 0.1 mm 1 mps 745 mmHg 90%
20:00 +18°C° 0.1 mm 1 mps 745 mmHg 93%
21:00 +18°C° 0 mm 1 mps 745 mmHg 94%
22:00 +16°C° 0 mm 1 mps 745 mmHg 95%
23:00 +16°C° 0 mm 1 mps 744 mmHg 96%

9 August, Sunday

Time Temperature Precipitation Wind Pressure Humidity
00:00 +16°C° 0 mm 1 mps 744 mmHg 96%
01:00 +15°C° 0 mm 1 mps 744 mmHg 96%
02:00 +15°C° 0 mm 1 mps 744 mmHg 97%
03:00 +15°C° 0 mm 1 mps 744 mmHg 97%
04:00 +15°C° 0 mm 1 mps 744 mmHg 97%
05:00 +15°C° 0 mm 1 mps 744 mmHg 97%
06:00 +16°C° 0 mm 1 mps 744 mmHg 91%
07:00 +19°C° 0 mm 1 mps 744 mmHg 86%
08:00 +20°C° 0 mm 1 mps 744 mmHg 80%
09:00 +22°C° 0.1 mm 1 mps 744 mmHg 73%
10:00 +23°C° 0.1 mm 1 mps 743 mmHg 65%
11:00 +24°C° 0.1 mm 1 mps 743 mmHg 57%
12:00 +24°C° 0.2 mm 2 mps 743 mmHg 57%
13:00 +24°C° 0.2 mm 2 mps 743 mmHg 57%
14:00 +25°C° 0.2 mm 2 mps 742 mmHg 57%
15:00 +24°C° 0 mm 2 mps 742 mmHg 59%
16:00 +24°C° 0 mm 1 mps 742 mmHg 60%
17:00 +24°C° 0 mm 1 mps 742 mmHg 62%
18:00 +22°C° 0 mm 1 mps 742 mmHg 69%
19:00 +20°C° 0 mm 1 mps 742 mmHg 77%
20:00 +18°C° 0 mm 1 mps 741 mmHg 84%
21:00 +16°C° 0 mm 1 mps 741 mmHg 87%
22:00 +15°C° 0 mm 1 mps 742 mmHg 89%
23:00 +15°C° 0 mm 1 mps 742 mmHg 92%

10 August, Monday

Time Temperature Precipitation Wind Pressure Humidity
00:00 +14°C° 0 mm 1 mps 742 mmHg 93%
01:00 +14°C° 0 mm 1 mps 742 mmHg 94%
02:00 +13°C° 0 mm 1 mps 742 mmHg 96%
03:00 +13°C° 0 mm 1 mps 742 mmHg 95%
04:00 +13°C° 0 mm 1 mps 742 mmHg 95%
05:00 +12°C° 0 mm 1 mps 742 mmHg 94%
06:00 +14°C° 0 mm 1 mps 742 mmHg 86%
07:00 +16°C° 0 mm 2 mps 742 mmHg 77%
08:00 +18°C° 0 mm 2 mps 742 mmHg 68%
09:00 +19°C° 0 mm 2 mps 742 mmHg 62%
10:00 +20°C° 0 mm 2 mps 742 mmHg 56%
11:00 +21°C° 0 mm 2 mps 743 mmHg 50%
12:00 +23°C° 0 mm 2 mps 742 mmHg 49%
13:00 +23°C° 0 mm 2 mps 742 mmHg 49%
14:00 +24°C° 0 mm 3 mps 742 mmHg 48%
15:00 +24°C° 0 mm 2 mps 742 mmHg 51%
16:00 +23°C° 0 mm 2 mps 742 mmHg 55%
17:00 +23°C° 0 mm 2 mps 742 mmHg 58%
18:00 +21°C° 0 mm 1 mps 742 mmHg 66%
19:00 +19°C° 0 mm 1 mps 742 mmHg 73%
20:00 +15°C° 0 mm 0 mps 742 mmHg 81%
21:00 +16°C° 0 mm 1 mps 742 mmHg 82%
22:00 +15°C° 0 mm 1 mps 742 mmHg 83%
23:00 +15°C° 0 mm 1 mps 743 mmHg 84%
Show more